Regional Weather Roundup
Issued by NWS

Home | Current Version | Previous Version | Graphics & Text | Print | Product List | Glossary On
Versions: 1 2 3 4 5 6 7 8 9 10 11 12 13 14 15 16 17 18 19 20 21 22 23 24 25 26 27 28 29 30 31 32 33 34 35 36 37 38 39 40 41 42 43 44 45 46 47 48 49 50
000
ASUS43 KLOT 251803
RWRIL

ILLINOIS REGIONAL WEATHER ROUNDUP
NATIONAL WEATHER SERVICE CHICAGO/ROMEOVILLE IL
100 PM CDT WED APR 25 2018

NOTE: "FAIR" INDICATES FEW OR NO CLOUDS BELOW 12,000 FEET WITH NO
SIGNIFICANT WEATHER AND/OR OBSTRUCTIONS TO VISIBILITY.

* THESE STATIONS ARE NOT UNDER NWS QUALITY CONTROL. THEY ALSO MAY NOT
  REPORT WEATHER SUCH AS PRECIPITATION OR FOG.

ILZ001-002-007-009-015-016-024-251900-
NORTHWEST ILLINOIS

CITY           SKY/WX    TMP DP  RH WIND       PRES   REMARKS
MOLINE         FAIR      63  37  38 N9        30.09F
6HR MIN TEMP:  49; 6HR MAX TEMP:  63;

STERLING*      FAIR      62  34  35 N10G17    30.10F
SAVANNA*       FAIR      59  32  35 W6        30.11F
$$

ILZ003-004-008-010-011-017-018-251900-
NORTH CENTRAL ILLINOIS

CITY           SKY/WX    TMP DP  RH WIND       PRES   REMARKS
ROCKFORD       FAIR      57  31  37 NE16      30.11F
6HR MIN TEMP:  44; 6HR MAX TEMP:  58;

FREEPORT*      FAIR      57  33  39 N8G16     30.12F
ROCHELLE*      FAIR      57  33  39 CALM      30.10S
DE KALB*       FAIR      57  32  38 N5        30.09F
PERU*          FAIR      62  36  38 N7        30.08F
$$

ILZ005-006-012>014-019>023-251900-
NORTHEAST ILLINOIS

CITY           SKY/WX    TMP DP  RH WIND       PRES   REMARKS
CHICAGO-OHARE  FAIR      52  30  43 NE18G24   30.09F
6HR MIN TEMP:  44; 6HR MAX TEMP:  53;

CHICAGO-MIDWAY FAIR      53  31  42 NE17G25   30.10F
6HR MIN TEMP:  43; 6HR MAX TEMP:  53;

AURORA         FAIR      59  34  39 MISG      30.07F
6HR MIN TEMP:  44; 6HR MAX TEMP:  59;

LANSING*       FAIR      48  38  66 N15       30.11F
JOLIET*        FAIR      57  33  40 N12G20    30.09F
WAUKEGAN       FAIR      46  33  60 NE16G23   30.09F
6HR MIN TEMP:  42; 6HR MAX TEMP:  50;

DUPAGE AIRPORT FAIR      57  33  40 N14       30.07F
6HR MIN TEMP:  42; 6HR MAX TEMP:  57;

KANKAKEE*      FAIR      56  33  41 NE16      30.09F
WHEELING       FAIR      50  29  44 NE18G24   30.12F
6HR MIN TEMP:  44; 6HR MAX TEMP:  52;

MORRIS*        FAIR      59  34  38 E6        30.07F
ROMEOVILLE*    FAIR      55  31  39 NE10G18   30.09F
$$

LMZ740>746-251900-
SOUTHERN LAKE MICHIGAN

STATION/POSITION SKY/WX   TEMP    WIND        PRES    VSBY  WAVE
                          AIR SEA DIR/SP/G                  HT/PER
                          (F)     (DEG/KT/KT) (MB)    (MI)  (FT/S)
HARRISON CRIB              39     350/ 16/ 18   N/A
BURNHAM HARBOR             45     360/ 13/ 17   N/A
CALUMET HARBOR             43     330/ 15/ 20 1019.8R
BURNS HARBOR               39     340/ 17/ 19 1020.0S
MICHIGAN CITY              40     330/ 22/ 24   N/A
ST. JOSEPH                 39 42  360/ 17/ 23 1019.5R         5/ 6
$$

ILZ025>027-034>036-040-047-049-050-058-095>099-251900-
WEST-CENTRAL ILLINOIS

CITY           SKY/WX    TMP DP  RH WIND       PRES   REMARKS
QUINCY         CLOUDY    60  42  51 NE9       30.07F
GALESBURG*     FAIR      62  40  45 NE10      30.10F
MACOMB*        CLOUDY    58  38  47 N7        30.11F
JACKSONVILLE*  CLOUDY    60  43  52 N12       30.07F
PITTSFIELD*    CLOUDY    61  46  58 NE10      30.07F
$$

ILZ028>032-037-038-041>044-048-051>054-059>061-251900-
CENTRAL ILLINOIS

CITY           SKY/WX    TMP DP  RH WIND       PRES   REMARKS
PONTIAC        FAIR      61  35  37 N13G18    30.07F
BLOOMINGTON    FAIR      61  40  45 NE16      30.06F
DECATUR        FAIR      61  44  53 N10       30.05F
PEORIA           N/A     60  40  47 NE8       30.07F
6HR MIN TEMP:  47; 6HR MAX TEMP:  60;

LACON*         FAIR      60  36  41 N6        30.07F
LINCOLN*       FAIR      62  44  52 N12       30.07S
SPRINGFIELD    FAIR      63  45  51 N7        30.06F
6HR MIN TEMP:  51; 6HR MAX TEMP:  63;

TAYLORVILLE    FAIR      62  46  56 N10       30.05F
6HR MIN TEMP:  50; 6HR MAX TEMP:  62;

$$

ILZ033-039-045-046-055>057-062-063-251900-
EAST-CENTRAL ILLINOIS

CITY           SKY/WX    TMP DP  RH WIND       PRES   REMARKS
CHAMPAIGN      FAIR      62  43  49 NE14      30.04F
DANVILLE*      FAIR      62  41  47 N14       30.01F
RANTOUL*       FAIR      61  41  48 NE16      30.05F
MATTOON        FAIR      62  50  64 NE10      30.02F
PARIS*         FAIR      64  48  57 N9G16     30.03F
$$

ILZ079-100>102-251900-
SOUTHWEST ILLINOIS

CITY           SKY/WX    TMP DP  RH WIND       PRES   REMARKS
ALTON          CLOUDY    66  55  68 NE6       30.04F
BELLEVILLE     PTSUNNY   67  55  64 E5        30.02F
CAHOKIA*       PTSUNNY   67  51  56 NE7       30.02F
SPARTA*        CLOUDY    65  55  70 NW3       30.03S
$$

ILZ064>066-069>071-074>076-080>082-084>086-088>090-092>094-251900-
SOUTH-CENTRAL ILLINOIS

CITY           SKY/WX    TMP DP  RH WIND       PRES   REMARKS
CARBONDALE     FAIR      69  53  56 N3        30.00F
6HR MIN TEMP:  45; 6HR MAX TEMP:  70;

CAIRO*         FAIR      69  54  57 CALM      30.00F
EFFINGHAM*     FAIR      65  53  65 N5        30.04F
MARION         PTSUNNY   68  52  56 E6        30.01F
MT. VERNON     FAIR      68  53  58 VRB5      30.01F
CENTRALIA*     PTSUNNY   68  55  62 N7        30.01F
SALEM*         FAIR      68  52  56 NE7       30.01F
METROPOLIS*    FAIR      69  52  54 N3        30.01S
$$

ILZ067-068-072-073-078-083-087-091-251900-
SOUTHEAST ILLINOIS

CITY           SKY/WX    TMP DP  RH WIND       PRES   REMARKS
LAWRENCEVILLE  PTSUNNY   67  52  58 MISG      30.01F
FLORA*         FAIR      67  53  60 NE5       30.02F
FAIRFIELD*     FAIR      67  51  58 NE6       30.00F
HARRISBURG*    PTSUNNY   67  55  64 CALM      30.01F
ROBINSON*      FAIR      62  53  72 N8        30.03F
CARMI*         FAIR      68  54  59 NW8       30.00F
$$

ABBREVIATIONS USED IN REMARKS
   TC - TEMPERATURE IN CELSIUS
  WCI - WIND CHILL INDEX
   HX - HEAT INDEX
  VSB - VISIBILITY
$$




USA.gov is the U.S. government's official web portal to all federal, state and local government web resources and services.